FENGYUN 1C DEB, 29973

Orbit data source: Space-Track

FENGYUN 1C DEB, 29973 is space debris in SSO originally from a launch on Mon, 10 May 1999 UTC launched from the Taiyaun Space Center, China (TSC). Fengyun 1C debris stems from the Chinese weather satellite Fengyun-1C, which was intentionally destroyed by a Chinese anti-satellite missile in 2007. This event dramatically increased the amount of space debris, with thousands of trackable fragments posing hazards to satellites and human spaceflight. The Fengyun 1C debris cloud has become a focal point in discussions about space sustainability and the need for international regulations to prevent the creation of new debris.

Loading next visibility...
Identifier
29973, 1999-025KX
Orbit
SSO
Country
Flag of CNCN / PRC
Related business
Manufacturer
Unknown
Mission
Spacecraft
Bus & Motor
Unknown
Mass
Unknown
Launch date (UTC)
1999-05-10 (27 years ago)
Launch vehicle
Unknown
Launch site
Taiyaun Space Center, China (TSC)
Object type
Payload
Rocket body
Debris
Shape & HBR
Unknown shape, 0.1 m
Radar Cross Section
Medium (>0.1 m² and <1 m²)

Expand to show TLE details & history
Last TLE update: 8 hours ago

TLE from 8 hours ago
0 FENGYUN 1C DEB
1 29973U 99025KX  26164.86715574  .00000751  00000-0  46877-3 0  9995
2 29973  98.8453 166.3282 0058586 357.2397 121.1331 14.06961313992933
Epoch: 2026-06-13T20:48Z
TLE epoch observation values (Epoch: 2026-06-13T20:48:42.255Z)
Latitude
59.94155°
Longitude
147.49129°
Altitude
902.079 km
Speed
7.395 km/s
True Right ascension
00h 07m 22s
True Declination
59° 47' 43"
Sunlit
Object was in daylight at epoch
Visualization orbit readout
Latitude
Unknown
Longitude
Unknown
Altitude
Unknown
Speed
Unknown
Apparent Right ascension
Unknown
Apparent Declination
Unknown
Sunlit
N/A
Visualization observer readout
Local Sidereal Time
15:39:03
Azimuth
Unknown
Elevation
Unknown
Doppler factor
Unknown
Orbital elements
Apogee altitude
909.417 km
Perigee altitude
824.525 km
Semi-major axis
7,245.108 km
Eccentricity
0.00586
Inclination
98.8453°
RAAN
166.3282°
Arg. of periapsis
357.2397°
True anomaly
121.70557°
Mean anomaly
121.1331°
Eccentric anomaly
121.41955°
Mean motion
3.51946 °/min
Orbital period
102.29 mins
BSTAR
0.00046877
Loading maneuver chart data...
Computing Atmospheric mass density...

Documentation

Showing up to 5 results
|